Temperature
21 22 22 22 22 22 21 20 20 19 19 18 18 18 17 17 17 17 16 16 16 16 17 17 17 17 17 17 17 16 16 15 15 15 14 14 14 13 14 14 14 14 15
22 23 23 23 22 21 20 19 19 19 19 18 18 18 17 17 17 17 16 16 16 16 16 17 17 17 17 17 17 17 16 16 16 15 15 14 14 13 13 14 14 14 14
22 22 22 21 21 20 20 19 18 18 18 18 18 17 17 17 17 17 16 16 16 16 16 17 17 17 17 17 17 17 17 17 16 15 15 15 15 14 13 13 14 13 13
21 22 21 20 20 20 20 19 18 18 18 17 17 17 17 17 17 17 16 16 16 16 16 17 17 17 17 17 17 17 17 17 17 15 15 16 16 15 14 13 13 13 14
21 21 21 20 20 20 19 19 18 17 17 17 17 17 17 16 16 16 16 16 16 16 16 16 16 16 16 17 17 17 17 17 16 16 16 15 15 15 15 15 14 13 13
21 21 20 20 20 19 19 18 18 17 17 17 17 16 16 16 16 15 15 15 15 16 16 16 15 16 16 17 17 17 17 17 16 16 16 16 16 16 16 15 15 14 13
21 21 21 21 20 20 19 19 18 17 17 17 16 16 16 15 15 15 15 15 15 15 15 15 14 14 14 15 17 17 16 16 16 16 16 16 16 16 16 16 15 15 14
21 22 22 21 21 20 19 18 18 17 17 16 16 16 15 15 15 15 15 15 15 15 14 14 14 14 14 14 15 15 15 16 16 16 16 16 16 16 15 15 15 15 15
22 23 22 22 21 20 19 18 18 17 17 17 16 15 15 15 15 15 15 14 14 14 14 14 14 14 13 14 14 15 15 15 15 16 16 16 16 15 15 15 15 15 15
22 23 23 22 21 20 19 18 17 17 17 17 16 15 15 15 15 15 15 15 14 14 14 14 14 13 14 14 14 15 15 15 16 16 16 16 15 15 15 15 15 15 14
22 23 22 22 21 20 19 18 17 17 17 17 16 16 15 15 15 15 15 15 15 15 14 14 14 14 14 14 14 14 15 15 15 16 15 15 15 15 15 15 15 15 14
22 22 22 21 21 20 19 18 17 17 17 16 16 16 15 15 15 15 15 15 15 15 15 15 15 15 14 14 14 15 15 15 16 16 15 15 15 14 14 14 15 15 15
22 22 22 22 21 20 20 19 18 18 17 16 16 16 15 15 15 15 14 14 14 15 15 15 15 14 14 14 14 14 14 15 15 15 15 15 15 15 14 14 15 15 15
22 22 22 22 22 21 20 19 19 18 17 17 16 16 16 15 15 14 14 13 14 14 14 14 14 14 14 14 13 13 14 14 15 15 15 15 15 15 14 15 15 15 14
22 22 22 22 22 21 20 20 19 19 18 17 17 17 17 16 15 15 15 14 14 14 14 14 14 13 14 14 14 14 14 14 15 15 15 15 14 15 14 15 15 14 14
22 21 21 22 22 21 21 19 19 19 18 18 18 17 17 16 16 16 16 16 15 15 15 14 14 14 14 14 14 14 14 14 14 15 15 15 14 15 14 14 14 14 14
21 21 20 21 21 20 20 19 19 18 18 18 18 17 17 17 17 16 16 16 16 16 15 14 14 14 14 14 14 14 13 13 14 14 14 14 14 14 14 14 14 14 14
21 21 21 20 20 19 19 18 18 18 18 18 18 17 17 17 17 16 16 16 16 15 15 14 14 14 14 13 14 13 13 14 14 14 14 14 14 14 14 14 14 14 14
20 19 19 19 19 18 18 18 17 17 18 17 17 17 17 17 16 16 16 15 15 15 14 14 13 13 13 13 14 13 13 13 14 14 14 14 14 14 14 14 14 14 15
19 18 18 18 18 17 17 16 16 16 16 16 16 16 16 16 16 15 15 15 15 14 13 13 13 13 13 13 13 13 13 13 14 14 14 13 14 14 14 15 14 14 14
18 18 17 17 17 16 15 15 14 14 14 14 14 14 15 15 15 15 15 14 14 14 13 12 12 13 13 12 12 12 13 13 13 13 13 13 13 14 13 13 14 13 13
17 17 16 16 15 14 14 14 14 13 13 13 13 12 12 13 13 13 13 13 13 12 12 12 12 12 12 12 12 12 12 12 13 13 13 13 13 13 12 13 13 13 12
16 16 15 15 14 13 13 13 12 12 12 11 11 12 12 12 12 12 12 12 12 12 12 12 12 12 12 12 12 12 12 12 12 12 12 13 13 13 13 13 13 12 11
15 15 14 14 13 13 13 13 12 12 11 11 11 11 11 11 11 10 10 11 12 12 12 12 12 12 12 12 11 12 12 11 12 12 12 12 12 12 12 12 11 11 11
15 14 14 14 13 13 13 13 12 12 11 11 11 11 10 11 11 11 11 11 11 11 11 11 11 11 11 11 11 11 11 11 11 11 11 11 11 11 12 12 11 11 11
16 15 14 14 14 14 13 13 13 12 11 11 11 11 11 11 11 11 11 11 11 11 11 11 11 11 11 11 11 11 11 11 11 10 10 10 10 10 11 11 11 10 10
Wind_Speed
2 1 1 1 4 6 7 7 6 5 5 3 3 3 2 2 2 3 3 4 8 10 8 4 6 6 7 7 7 4 4 2 4 5 4 4 4 5 3 3 5 7 9
3 3 3 2 4 7 8 7 6 5 4 3 2 2 2 2 1 2 2 5 8 10 10 7 7 8 6 7 7 6 4 2 4 4 4 2 1 4 4 3 3 4 6
7 5 3 3 5 6 7 5 5 4 4 4 3 2 3 3 2 2 2 3 7 9 8 5 7 8 8 9 9 8 8 6 3 2 4 4 4 1 2 3 2 3 3
7 5 5 6 7 6 6 5 5 5 4 5 5 5 4 4 3 3 4 5 8 7 6 4 5 8 8 9 10 8 5 7 6 2 2 3 4 4 2 1 1 2 2
8 7 8 7 5 3 4 5 5 6 5 5 6 6 4 4 4 3 5 6 5 6 5 1 3 6 7 9 10 8 6 5 6 5 3 3 3 3 4 2 1 1 0
8 8 7 6 5 3 3 4 5 5 5 6 6 6 6 5 5 5 6 6 6 8 9 7 5 2 1 2 6 8 7 5 5 5 5 4 4 4 4 3 2 3 2
9 9 9 9 8 7 6 5 5 4 5 6 6 6 6 7 7 7 7 8 6 6 10 8 5 3 4 1 2 4 4 5 5 6 5 5 4 4 4 4 3 2 2
10 11 12 11 9 8 7 6 6 4 3 5 6 4 6 6 5 5 5 5 5 7 10 9 6 1 1 4 5 5 4 4 6 7 6 5 5 4 5 5 5 3 3
12 12 10 9 9 9 8 8 6 5 4 5 4 4 5 5 5 5 5 4 5 6 8 9 7 3 3 5 5 4 4 5 5 6 7 6 6 7 6 5 5 6 5
11 10 8 8 9 9 8 7 7 7 4 4 3 4 5 5 5 7 7 7 5 5 6 8 9 7 3 2 3 3 4 4 5 5 7 6 5 6 6 6 5 4 5
9 9 7 7 9 8 8 8 7 6 5 5 4 4 4 4 4 5 6 5 5 6 8 10 10 10 9 9 8 5 6 7 6 6 6 7 6 6 5 6 6 5 4
8 9 8 8 8 8 8 8 8 8 8 7 6 6 6 6 5 6 5 5 5 5 5 7 10 10 9 9 9 9 9 7 4 5 6 9 8 7 6 6 7 7 6
8 9 9 9 9 9 8 8 9 10 8 7 7 7 7 8 8 7 5 3 1 0 0 2 5 7 7 8 9 8 8 5 6 6 8 9 9 8 7 7 7 7 6
7 8 10 10 10 9 9 9 9 8 7 6 7 7 8 9 9 9 7 5 4 4 4 4 5 5 6 9 10 10 9 7 7 7 8 8 9 10 9 8 8 7 7
8 9 11 12 10 9 8 8 8 6 6 6 7 9 8 8 9 9 8 8 8 7 7 6 5 5 6 7 9 9 9 9 8 7 7 7 10 12 10 9 8 9 8
8 8 10 10 9 8 8 7 8 6 6 7 9 8 7 8 8 8 8 8 8 7 7 6 6 5 4 6 7 6 7 9 9 8 6 6 11 13 14 15 15 15 13
7 6 7 6 6 6 7 9 8 7 8 9 9 7 8 9 8 7 7 8 8 7 7 6 6 5 5 7 9 8 6 7 8 8 6 5 4 6 6 12 15 16 18
5 5 6 6 3 1 2 4 6 6 7 7 8 7 8 9 8 7 8 8 7 6 6 6 4 3 5 8 8 7 4 5 6 5 5 4 3 3 4 5 8 10 11
4 5 7 7 6 6 5 4 1 4 5 5 5 6 7 7 6 7 6 6 6 5 4 4 4 4 4 5 6 4 2 2 3 4 6 7 5 4 4 5 7 8 7
7 7 7 7 8 7 8 10 7 5 5 6 4 3 6 7 6 7 6 5 6 7 5 4 3 1 3 4 3 1 1 1 1 2 4 6 8 7 7 5 4 5 6
7 7 8 7 6 6 7 8 7 6 4 5 5 4 1 3 4 8 7 8 7 7 5 3 3 0 3 4 3 4 3 2 2 2 2 3 4 5 4 5 4 2 2
6 7 7 7 5 5 7 7 5 4 4 5 6 5 4 3 3 5 7 8 8 5 3 2 2 1 2 3 4 5 6 5 4 3 3 3 2 4 3 3 3 3 3
6 5 7 6 4 4 5 5 2 2 4 5 5 4 5 4 4 4 5 3 3 4 3 1 2 3 1 3 4 4 7 8 4 2 3 3 4 4 3 2 3 3 4
5 5 6 6 3 2 2 2 2 3 4 4 4 4 5 5 4 1 1 1 1 1 1 2 4 4 3 3 3 2 3 4 4 4 4 5 3 2 1 1 2 3 3
4 5 5 5 4 3 2 2 3 4 4 4 4 3 3 5 4 3 0 1 2 3 2 3 3 3 4 4 5 5 4 4 6 5 4 3 3 2 1 1 1 1 2
5 4 4 4 4 4 3 3 4 5 5 4 2 2 2 3 4 4 3 4 4 3 2 1 0 2 4 5 4 6 9 12 11 4 2 2 1 1 2 2 2 2 2
Wind_Direction
198 259 347 333 171 144 135 147 163 146 122 109 105 119 171 186 194 204 228 181 187 199 195 192 164 169 180 180 160 126 115 120 139 108 84 58 65 69 56 80 94 82 77
221 301 339 333 190 171 159 154 157 152 141 130 120 115 121 143 196 131 164 210 206 203 205 186 176 173 164 154 155 145 123 156 184 129 128 109 43 42 41 57 68 72 69
202 223 239 241 219 200 194 181 171 165 160 139 112 86 90 102 131 159 150 230 232 211 207 193 181 171 171 174 173 161 156 157 190 170 141 159 190 150 30 41 59 55 48
200 207 221 227 212 194 183 185 199 203 181 156 164 174 164 172 178 146 137 182 215 210 209 216 201 189 182 180 179 166 160 148 164 157 114 124 145 145 150 356 10 52 53
189 203 217 230 228 204 183 184 206 217 197 189 194 183 164 154 153 150 145 144 146 131 110 78 199 207 198 185 172 166 162 148 160 162 153 123 98 116 135 176 241 289 299
195 213 223 230 235 226 206 186 192 204 196 202 207 191 179 164 162 164 158 153 138 120 102 76 74 54 356 204 170 163 163 151 158 167 162 159 160 170 149 152 185 204 223
198 213 215 216 218 212 208 200 200 201 187 195 205 200 190 182 188 177 175 174 165 139 117 101 70 47 60 81 153 152 173 175 182 180 182 185 176 153 149 144 150 171 209
209 216 214 208 209 209 204 207 212 207 194 209 216 194 193 191 187 175 171 175 167 148 135 128 114 115 181 187 176 173 191 201 204 187 181 191 188 181 172 160 149 148 188
216 222 213 201 200 206 208 205 215 226 199 209 220 201 197 196 184 174 173 175 167 161 150 139 131 187 233 201 174 148 183 205 216 206 197 196 191 194 191 175 168 159 188
232 235 219 203 204 203 198 198 210 233 225 213 223 214 204 205 185 174 187 198 188 167 166 154 164 175 188 213 232 159 181 211 226 206 197 201 192 196 192 186 185 171 174
244 250 240 217 209 194 189 191 201 216 222 223 227 223 219 212 190 182 199 201 197 193 188 181 181 185 194 205 213 208 219 218 212 200 195 213 201 196 185 179 175 175 163
252 247 235 212 208 201 198 191 195 211 214 202 213 218 198 190 192 193 194 194 209 208 189 179 176 182 198 203 199 202 226 231 223 226 214 222 198 203 190 186 190 189 180
249 232 213 205 207 210 205 199 200 212 214 199 200 212 201 188 195 204 199 182 188 222 297 195 181 184 189 206 211 202 224 220 218 223 224 224 191 202 194 193 196 192 180
256 225 210 201 205 206 208 208 217 210 209 208 215 215 208 201 197 197 196 187 184 191 201 199 188 195 202 204 212 209 208 218 216 213 219 225 201 203 192 193 191 179 173
249 221 209 200 201 199 204 212 226 218 202 210 226 236 216 206 201 196 190 181 180 190 190 190 203 218 221 213 203 207 205 223 236 220 194 212 228 223 205 190 179 171 173
276 235 204 193 187 201 200 210 224 215 209 222 230 237 227 218 215 199 183 178 186 193 188 195 221 238 242 258 259 227 200 215 223 227 203 208 230 227 214 202 190 182 180
274 215 182 177 169 197 201 222 226 204 210 225 233 222 222 223 221 201 180 182 185 185 190 194 207 234 258 267 259 249 224 218 215 208 192 202 206 213 215 212 203 195 193
251 179 151 129 121 127 180 228 236 231 229 233 239 231 224 227 219 204 200 190 187 188 188 197 202 244 277 284 295 295 240 214 219 207 176 175 193 184 217 219 199 194 201
90 93 96 101 97 81 78 97 251 270 268 262 252 250 243 235 201 215 211 170 163 158 167 163 182 207 259 287 296 294 256 239 220 184 179 161 147 158 163 181 187 183 190
87 93 96 96 85 73 79 79 65 47 357 329 312 247 232 227 197 175 169 144 134 126 131 139 131 177 271 287 280 171 133 162 152 189 203 177 151 135 132 128 152 191 199
85 85 82 83 88 97 94 84 74 59 37 31 46 63 155 204 173 151 149 146 136 127 119 97 81 235 256 282 271 183 158 192 181 209 228 228 165 136 133 146 149 165 201
90 89 97 100 96 88 88 82 63 28 41 61 68 75 93 113 140 144 148 151 143 147 135 51 9 315 257 283 280 214 194 191 195 220 246 271 226 166 210 182 149 180 199
116 113 116 108 85 77 98 109 102 48 58 64 66 76 74 86 125 146 150 153 160 153 143 208 268 287 282 267 290 266 212 193 178 198 203 223 237 210 172 133 123 165 183
132 129 123 123 138 158 121 138 154 103 73 63 61 76 85 83 71 96 154 131 21 348 41 304 293 297 298 268 260 276 188 162 120 89 74 65 60 98 134 126 151 170 190
139 143 148 161 181 183 200 193 165 140 110 97 84 67 81 105 96 66 348 203 249 264 250 268 256 248 259 246 207 196 161 142 129 105 73 53 36 33 73 102 199 228 235
157 163 180 202 215 224 256 240 175 151 128 117 108 94 91 96 112 110 79 48 41 33 39 47 69 292 282 285 210 174 144 140 133 107 117 134 164 242 236 224 242 247 248
Height
1484 1486 1487 1488 1489 1489 1489 1491 1494 1501 1504 1506 1507 1508 1511 1514 1516 1518 1520 1524 1527 1529 1532 1534 1537 1539 1541 1544 1547 1550 1553 1555 1556 1558 1560 1561 1561 1562 1562 1563 1563 1563 1562
1483 1484 1485 1485 1486 1487 1488 1489 1492 1497 1499 1502 1504 1505 1508 1510 1513 1514 1516 1520 1522 1524 1527 1530 1533 1536 1538 1541 1544 1547 1549 1552 1555 1557 1559 1561 1563 1562 1562 1563 1563 1564 1563
1481 1482 1483 1483 1485 1486 1487 1488 1491 1495 1497 1499 1501 1502 1504 1506 1509 1510 1511 1514 1517 1519 1521 1525 1529 1532 1535 1537 1540 1544 1547 1549 1552 1555 1557 1558 1559 1561 1562 1563 1563 1563 1563
1479 1481 1482 1483 1484 1485 1485 1486 1488 1491 1494 1497 1498 1499 1501 1503 1504 1505 1506 1508 1511 1514 1516 1521 1525 1528 1531 1534 1537 1541 1544 1547 1550 1552 1554 1557 1557 1558 1560 1562 1562 1562 1562
1477 1480 1481 1482 1484 1484 1484 1484 1486 1488 1490 1492 1494 1495 1496 1498 1499 1500 1501 1503 1505 1507 1509 1514 1518 1523 1527 1530 1534 1538 1541 1544 1547 1550 1552 1554 1555 1556 1558 1559 1561 1561 1561
1477 1478 1479 1480 1482 1483 1484 1484 1485 1487 1487 1489 1491 1492 1493 1494 1494 1495 1496 1497 1498 1500 1502 1507 1511 1515 1520 1525 1528 1533 1537 1541 1544 1547 1549 1551 1553 1554 1556 1557 1558 1559 1560
1474 1475 1476 1477 1479 1480 1482 1483 1485 1486 1486 1487 1489 1490 1490 1490 1491 1492 1493 1493 1494 1494 1496 1502 1508 1511 1515 1521 1524 1529 1533 1537 1541 1543 1546 1548 1549 1551 1553 1555 1556 1556 1558
1471 1472 1473 1475 1477 1479 1480 1481 1483 1484 1485 1486 1487 1487 1487 1487 1487 1488 1489 1491 1491 1490 1491 1496 1502 1509 1514 1518 1521 1525 1529 1533 1537 1540 1542 1544 1546 1548 1550 1552 1553 1554 1555
1468 1470 1471 1473 1476 1478 1479 1480 1481 1482 1482 1483 1484 1485 1485 1485 1485 1486 1487 1488 1489 1489 1490 1494 1498 1505 1509 1513 1517 1521 1526 1530 1534 1536 1538 1540 1542 1544 1546 1547 1549 1552 1552
1467 1468 1469 1472 1473 1474 1475 1477 1479 1480 1481 1481 1483 1484 1484 1484 1484 1485 1486 1488 1489 1490 1491 1492 1495 1501 1507 1510 1515 1521 1523 1527 1530 1532 1533 1535 1538 1540 1542 1543 1545 1547 1550
1464 1466 1467 1470 1471 1471 1473 1475 1477 1478 1479 1479 1481 1482 1483 1483 1484 1485 1486 1488 1490 1491 1492 1493 1496 1500 1506 1511 1515 1520 1523 1527 1528 1528 1530 1532 1534 1536 1537 1539 1540 1543 1545
1462 1464 1465 1467 1468 1469 1471 1473 1475 1476 1477 1477 1478 1479 1481 1482 1483 1485 1486 1488 1491 1492 1494 1495 1497 1501 1505 1509 1513 1518 1521 1523 1524 1525 1526 1527 1528 1530 1531 1533 1535 1537 1540
1457 1458 1459 1461 1464 1467 1468 1471 1472 1473 1475 1475 1475 1476 1478 1479 1481 1483 1485 1487 1489 1491 1493 1495 1499 1501 1505 1509 1513 1515 1517 1518 1520 1521 1521 1521 1522 1524 1526 1528 1529 1532 1534
1451 1451 1452 1455 1460 1463 1465 1467 1469 1470 1472 1473 1473 1474 1475 1477 1479 1480 1482 1485 1487 1489 1492 1495 1497 1499 1502 1504 1507 1510 1511 1513 1514 1515 1515 1516 1516 1519 1521 1522 1524 1526 1528
1445 1445 1446 1449 1455 1458 1461 1463 1465 1467 1469 1470 1470 1470 1472 1474 1475 1477 1479 1481 1484 1487 1489 1492 1494 1497 1499 1502 1503 1505 1506 1508 1510 1510 1510 1511 1512 1514 1515 1517 1518 1519 1521
1440 1440 1442 1445 1450 1454 1457 1460 1462 1464 1465 1466 1466 1468 1469 1470 1472 1474 1476 1478 1481 1483 1486 1488 1490 1492 1495 1496 1498 1500 1501 1502 1504 1505 1505 1506 1508 1509 1510 1511 1513 1514 1515
1438 1437 1439 1443 1448 1452 1455 1457 1459 1460 1461 1462 1463 1464 1466 1466 1468 1471 1473 1476 1478 1480 1482 1483 1485 1488 1489 1490 1492 1494 1495 1496 1498 1498 1498 1500 1502 1504 1505 1507 1507 1508 1509
1435 1435 1437 1442 1447 1450 1451 1453 1454 1455 1456 1457 1459 1461 1462 1463 1465 1467 1469 1471 1473 1475 1478 1480 1481 1483 1485 1486 1488 1489 1489 1490 1491 1492 1493 1495 1498 1499 1499 1501 1502 1504 1506
1433 1435 1438 1442 1445 1447 1449 1450 1451 1451 1452 1452 1453 1455 1456 1457 1459 1461 1463 1465 1467 1469 1473 1475 1477 1479 1480 1482 1483 1485 1485 1486 1487 1488 1489 1490 1493 1495 1495 1496 1498 1500 1502
1437 1439 1441 1443 1446 1448 1449 1450 1450 1450 1449 1448 1447 1448 1449 1451 1453 1454 1457 1459 1462 1464 1468 1470 1472 1475 1477 1477 1479 1481 1482 1482 1483 1484 1485 1486 1489 1491 1491 1492 1493 1495 1499
1440 1442 1443 1445 1447 1448 1449 1450 1449 1449 1448 1447 1446 1445 1445 1446 1448 1448 1450 1454 1458 1461 1465 1466 1467 1471 1473 1474 1475 1477 1479 1480 1480 1480 1482 1483 1483 1485 1486 1488 1490 1492 1495
1443 1444 1445 1446 1447 1449 1450 1450 1450 1450 1449 1447 1446 1445 1445 1444 1445 1446 1448 1450 1454 1457 1461 1463 1464 1466 1468 1470 1472 1473 1475 1477 1478 1478 1479 1480 1481 1482 1483 1485 1486 1488 1491
1444 1445 1446 1448 1449 1451 1451 1452 1452 1451 1450 1448 1447 1446 1445 1444 1444 1446 1448 1450 1453 1456 1457 1459 1461 1463 1464 1466 1469 1471 1472 1474 1475 1475 1476 1477 1478 1480 1481 1483 1483 1485 1488
1445 1446 1448 1450 1452 1452 1453 1453 1453 1453 1451 1449 1448 1447 1446 1446 1445 1445 1447 1451 1454 1455 1456 1456 1457 1458 1460 1463 1466 1468 1470 1471 1472 1473 1474 1476 1477 1478 1479 1480 1480 1482 1484
1446 1448 1449 1451 1452 1453 1453 1453 1453 1453 1452 1450 1449 1448 1448 1448 1447 1447 1449 1452 1455 1455 1456 1456 1456 1456 1458 1460 1463 1465 1467 1469 1471 1472 1473 1474 1475 1475 1476 1477 1477 1478 1479
1447 1448 1450 1451 1452 1453 1453 1453 1452 1452 1452 1451 1450 1450 1449 1450 1450 1450 1452 1453 1454 1455 1455 1455 1455 1455 1457 1459 1461 1463 1465 1467 1469 1470 1470 1471 1473 1473 1473 1474 1474 1475 1476